This is the latest recevied weather packets stored in our database for station/object WA6MHA-11. If no packets are shown the sender has not sent any weather packets the latest 10 day(s).
| Time | Temp. | Humidity | Pressure | Rain* | Wind** | Luminosity | Snow |
|---|---|---|---|---|---|---|---|
| 1777854718 | 19.44° C | 33% | 1013.8 hPa | 0 mm | - | - | - |
| 1777854477 | 20° C | 33% | 1013.7 hPa | 0 mm | - | - | - |
| 1777854236 | 20° C | 33% | 1013.8 hPa | 0 mm | - | - | - |
| 1777853753 | 20° C | 33% | 1013.8 hPa | 0 mm | - | - | - |
| 1777853277 | 21.11° C | 32% | 1013.7 hPa | 0 mm | - | - | - |
| 1777853031 | 21.11° C | 32% | 1013.7 hPa | 0 mm | - | - | - |
| 1777852548 | 21.11° C | 32% | 1013.7 hPa | 0 mm | - | - | - |
| 1777851826 | 22.22° C | 32% | 1013.7 hPa | 0 mm | - | - | - |
| 1777851274 | 21.67° C | 32% | 1013.7 hPa | 0 mm | - | - | - |
| 1777851193 | 21.67° C | 32% | 1013.7 hPa | 0 mm | - | - | - |
| 1777851100 | 21.67° C | 32% | 1013.7 hPa | 0 mm | - | - | - |
| 1777850863 | 21.67° C | 33% | 1013.8 hPa | 0 mm | - | - | - |
| 1777850618 | 22.22° C | 33% | 1013.8 hPa | 0 mm | - | - | - |
| 1777849169 | 21.11° C | 33% | 1013.9 hPa | 0 mm | - | - | - |
| 1777848928 | 21.67° C | 33% | 1014 hPa | 0 mm | - | - | - |
| 1777848702 | 22.78° C | 33% | 1014 hPa | 0 mm | - | - | - |
| 1777847481 | 22.22° C | 35% | 1014.2 hPa | 0 mm | - | - | - |
| 1777846997 | 22.78° C | 35% | 1014.4 hPa | 0 mm | - | - | - |
| 1777846756 | 22.22° C | 35% | 1014.4 hPa | 0 mm | - | - | - |
| 1777846557 | 21.67° C | 35% | 1014.6 hPa | 0 mm | - | - | - |
| 1777846515 | 21.67° C | 35% | 1014.6 hPa | 0 mm | - | - | - |
| 1777846273 | 21.67° C | 36% | 1014.5 hPa | 0 mm | - | - | - |
| 1777846032 | 20.56° C | 35% | 1014.5 hPa | 0 mm | - | - | - |
| 1777845790 | 21.11° C | 36% | 1014.5 hPa | 0 mm | - | - | - |
| 1777845549 | 21.67° C | 36% | 1014.7 hPa | 0 mm | - | - | - |
* Rain since midnight (hover to see other rain measurements)
** Current wind speed in m/s (hover to see current wind gust speed)